Flag for U.S.A. Weather past 2 weeks in Yonkers, New York, U.S.A.

Now
78 °F

Overcast.


Feels Like: 80 °F
Forecast: 68 / 81 °F
Wind: 9 mph from West

Location: Teterboro Airport

Current Time: Jul 26, 2014 at 12:05:29 PM

Latest Report: Jul 26, 2014 at 10:51 AM


Visibility: 10 mi

Pressure: 29.98 "Hg

Humidity: 54%

Dew point: 60 °F

Location of YonkersLocation

Historic Weather in Yonkers — Graph

°F

Yonkers temperature yesterday

Maximum temperature yesterday: 85 °F (at 4:51 PM)
Minimum temperature yesterday: 66 °F (at 5:51 AM)
Average temperature yesterday: 76 °F

Past Weeks' High & Low Weather Summary

 TemperatureHumidityPressure
High96 °F (Jul 23, 4:51 PM)89% (Jul 14, 4:00 AM)30.24 "Hg (Jul 14, 4:00 AM)
Low64 °F (Jul 18, 5:51 AM)28% (Jul 18, 3:51 PM)29.73 "Hg (Jul 15, 4:51 PM)
Average77 °F60%30.01 "Hg
* Reported Jul 11 10:51 AM — Jul 26 10:51 AM, Yonkers, Weather by CustomWeather, © 2014

Note: Actual official high and low records may vary slightly from our data, if they occured in-between our weather recording intervals... More about our weather records

Advertising

Yonkers weather history for previous 24 hours

 ConditionsComfort  
Time TempWeatherWind HumidityBarometerVisibility
10:51 AM
Jul 26
78 °FOvercast.9 mph54%29.98 "Hg10 mi
9:51 AM80 °FPassing clouds.5 mph45%29.98 "Hg10 mi
8:51 AM76 °FSunny.5 mph52%29.98 "Hg10 mi
7:51 AM73 °FSunny.3 mph59%29.99 "Hg10 mi
6:51 AM71 °FSunny.No wind66%29.99 "Hg10 mi
5:51 AM69 °FClear.3 mph73%29.99 "Hg10 mi
4:51 AM70 °FClear.5 mph73%29.98 "Hg10 mi
3:51 AM71 °FClear.3 mph71%29.98 "Hg10 mi
2:51 AM71 °FPassing clouds.6 mph73%29.98 "Hg10 mi
1:51 AM72 °FClear.3 mph68%29.98 "Hg10 mi
12:51 AM73 °FClear.8 mph66%29.98 "Hg10 mi
11:51 PM
Jul 25
74 °FClear.6 mph62%29.99 "Hg10 mi
10:51 PM75 °FClear.8 mph55%30.00 "Hg8 mi
9:51 PM77 °FClear.8 mph52%30.00 "Hg10 mi
8:51 PM79 °FScattered clouds.9 mph48%29.98 "Hg10 mi
7:51 PM81 °FPartly sunny.9 mph44%29.96 "Hg10 mi
6:51 PM83 °FSunny.No wind33%29.95 "Hg10 mi
5:51 PM84 °FPassing clouds.3 mph35%29.95 "Hg10 mi
4:51 PM85 °FSunny.No wind32%29.93 "Hg10 mi
3:51 PM83 °FPassing clouds.3 mph36%29.96 "Hg10 mi
2:51 PM84 °FSunny.7 mph36%29.97 "Hg10 mi
1:51 PM83 °FPassing clouds.9 mph33%29.98 "Hg10 mi
12:51 PM81 °FPassing clouds.6 mph38%29.99 "Hg10 mi
Weather by CustomWeather, © 2014

See weather overviewHow to use our weather pages